Time,TemperatureF,DewpointF,PressureIn,WindDirection,WindDirectionDegrees,WindSpeedMPH,WindSpeedGustMPH,Humidity,HourlyPrecipIn,Conditions,Clouds,dailyrainin,SoftwareType,DateUTC
2013-06-30 00:33:00,63.0,-99.9,29.84,South,184,7.0,11.0,-999,-99.99,,,-99.99,,2013-06-30 07:33:00,
2013-06-30 00:44:00,62.0,-99.9,29.84,South,186,6.0,8.0,-999,-99.99,,,-99.99,,2013-06-30 07:44:00,
2013-06-30 00:53:00,62.0,-99.9,29.84,South,176,5.0,9.0,-999,-99.99,,,-99.99,,2013-06-30 07:53:00,
2013-06-30 01:02:00,62.0,-99.9,29.84,South,180,7.0,10.0,-999,-99.99,,,-99.99,,2013-06-30 08:02:00,
2013-06-30 01:12:00,62.0,-99.9,29.84,South,170,9.0,12.0,-999,-99.99,,,-99.99,,2013-06-30 08:12:00,
2013-06-30 01:42:00,60.0,-99.9,29.83,SSE,168,14.0,16.0,-999,-99.99,,,-99.99,,2013-06-30 08:42:00,
2013-06-30 01:53:00,61.0,-99.9,29.83,South,185,10.0,14.0,-999,-99.99,,,-99.99,,2013-06-30 08:53:00,
2013-06-30 02:02:00,60.0,-99.9,29.83,SSE,168,11.0,15.0,-999,-99.99,,,-99.99,,2013-06-30 09:02:00,
2013-06-30 02:34:00,61.0,-99.9,29.83,SSW,195,7.0,12.0,-999,-99.99,,,-99.99,,2013-06-30 09:34:00,
2013-06-30 02:43:00,60.0,-99.9,29.83,South,169,13.0,16.0,-999,-99.99,,,-99.99,,2013-06-30 09:43:00,
2013-06-30 02:53:00,61.0,-99.9,29.83,South,179,7.0,15.0,-999,-99.99,,,-99.99,,2013-06-30 09:53:00,
2013-06-30 03:02:00,61.0,-99.9,29.82,SSE,153,5.0,11.0,-999,-99.99,,,-99.99,,2013-06-30 10:02:00,
2013-06-30 03:11:00,61.0,-99.9,29.82,SSE,152,6.0,11.0,-999,-99.99,,,-99.99,,2013-06-30 10:11:00,
2013-06-30 03:34:00,59.0,-99.9,29.82,SSE,162,15.0,20.0,-999,-99.99,,,-99.99,,2013-06-30 10:34:00,
2013-06-30 03:43:00,59.0,-99.9,29.83,South,169,13.0,17.0,-999,-99.99,,,-99.99,,2013-06-30 10:43:00,
2013-06-30 03:53:00,60.0,-99.9,29.82,SSW,198,8.0,20.0,-999,-99.99,,,-99.99,,2013-06-30 10:53:00,
2013-06-30 04:11:00,61.0,-99.9,29.82,SSW,199,7.0,13.0,-999,-99.99,,,-99.99,,2013-06-30 11:11:00,
2013-06-30 04:33:00,60.0,-99.9,29.82,South,173,9.0,14.0,-999,-99.99,,,-99.99,,2013-06-30 11:33:00,
2013-06-30 04:43:00,60.0,-99.9,29.82,SSE,166,11.0,14.0,-999,-99.99,,,-99.99,,2013-06-30 11:43:00,
2013-06-30 04:53:00,60.0,-99.9,29.83,SSW,195,6.0,10.0,-999,-99.99,,,-99.99,,2013-06-30 11:53:00,
2013-06-30 05:02:00,60.0,-99.9,29.82,SSW,192,6.0,9.0,-999,-99.99,,,-99.99,,2013-06-30 12:02:00,
2013-06-30 05:33:00,60.0,-99.9,29.82,South,184,6.0,12.0,-999,-99.99,,,-99.99,,2013-06-30 12:33:00,
2013-06-30 05:43:00,60.0,-99.9,29.83,SSE,166,8.0,9.0,-999,-99.99,,,-99.99,,2013-06-30 12:43:00,
2013-06-30 05:52:00,60.0,-99.9,29.82,SSE,165,8.0,10.0,-999,-99.99,,,-99.99,,2013-06-30 12:52:00,
2013-06-30 06:02:00,59.0,-99.9,29.83,South,171,9.0,12.0,-999,-99.99,,,-99.99,,2013-06-30 13:02:00,
2013-06-30 06:12:00,60.0,-99.9,29.83,South,180,6.0,13.0,-999,-99.99,,,-99.99,,2013-06-30 13:12:00,
2013-06-30 06:34:00,60.0,-99.9,29.83,South,174,5.0,10.0,-999,-99.99,,,-99.99,,2013-06-30 13:34:00,
2013-06-30 06:44:00,60.0,-99.9,29.83,South,189,7.0,9.0,-999,-99.99,,,-99.99,,2013-06-30 13:44:00,
2013-06-30 06:53:00,60.0,-99.9,29.84,South,185,5.0,9.0,-999,-99.99,,,-99.99,,2013-06-30 13:53:00,
2013-06-30 07:02:00,60.0,-99.9,29.84,South,170,7.0,9.0,-999,-99.99,,,-99.99,,2013-06-30 14:02:00,
2013-06-30 07:11:00,60.0,-99.9,29.84,SSE,166,9.0,11.0,-999,-99.99,,,-99.99,,2013-06-30 14:11:00,
2013-06-30 07:33:00,61.0,-99.9,29.84,South,178,5.0,9.0,-999,-99.99,,,-99.99,,2013-06-30 14:33:00,
2013-06-30 07:44:00,61.0,-99.9,29.84,South,191,5.0,8.0,-999,-99.99,,,-99.99,,2013-06-30 14:44:00,
2013-06-30 08:02:00,62.0,-99.9,29.85,South,188,5.0,8.0,-999,-99.99,,,-99.99,,2013-06-30 15:02:00,
2013-06-30 08:12:00,62.0,-99.9,29.85,South,181,6.0,9.0,-999,-99.99,,,-99.99,,2013-06-30 15:12:00,
2013-06-30 08:35:00,62.0,-99.9,29.85,South,176,8.0,10.0,-999,-99.99,,,-99.99,,2013-06-30 15:35:00,
2013-06-30 08:44:00,62.0,-99.9,29.85,South,176,8.0,10.0,-999,-99.99,,,-99.99,,2013-06-30 15:44:00,
2013-06-30 08:53:00,61.0,-99.9,29.85,SSW,198,9.0,12.0,-999,-99.99,,,-99.99,,2013-06-30 15:53:00,
2013-06-30 09:21:00,63.0,-99.9,29.85,South,171,9.0,11.0,-999,-99.99,,,-99.99,,2013-06-30 16:21:00,
2013-06-30 09:34:00,63.0,-99.9,29.85,South,171,9.0,11.0,-999,-99.99,,,-99.99,,2013-06-30 16:34:00,
2013-06-30 09:44:00,62.0,-99.9,29.85,South,190,7.0,13.0,-999,-99.99,,,-99.99,,2013-06-30 16:44:00,
2013-06-30 09:53:00,63.0,-99.9,29.85,South,186,10.0,14.0,-999,-99.99,,,-99.99,,2013-06-30 16:53:00,
2013-06-30 10:02:00,62.0,-99.9,29.85,SSW,201,10.0,13.0,-999,-99.99,,,-99.99,,2013-06-30 17:02:00,
2013-06-30 10:23:00,63.0,-99.9,29.85,SSW,202,9.0,13.0,-999,-99.99,,,-99.99,,2013-06-30 17:23:00,
2013-06-30 10:34:00,63.0,-99.9,29.85,SSW,203,9.0,11.0,-999,-99.99,,,-99.99,,2013-06-30 17:34:00,
2013-06-30 10:43:00,64.0,-99.9,29.85,SSW,198,9.0,12.0,-999,-99.99,,,-99.99,,2013-06-30 17:43:00,
2013-06-30 10:53:00,63.0,-99.9,29.85,SSW,196,11.0,14.0,-999,-99.99,,,-99.99,,2013-06-30 17:53:00,
2013-06-30 11:02:00,64.0,-99.9,29.85,SSW,194,9.0,13.0,-999,-99.99,,,-99.99,,2013-06-30 18:02:00,
2013-06-30 11:43:00,64.0,-99.9,29.85,South,182,8.0,12.0,-999,-99.99,,,-99.99,,2013-06-30 18:43:00,
2013-06-30 11:53:00,65.0,-99.9,29.84,South,189,10.0,14.0,-999,-99.99,,,-99.99,,2013-06-30 18:53:00,
2013-06-30 12:01:00,65.0,-99.9,29.85,South,177,9.0,12.0,-999,-99.99,,,-99.99,,2013-06-30 19:01:00,
2013-06-30 12:12:00,65.0,-99.9,29.84,South,177,10.0,15.0,-999,-99.99,,,-99.99,,2013-06-30 19:12:00,
2013-06-30 12:22:00,65.0,-99.9,29.84,South,191,11.0,14.0,-999,-99.99,,,-99.99,,2013-06-30 19:22:00,
2013-06-30 12:43:00,65.0,-99.9,29.84,South,190,10.0,13.0,-999,-99.99,,,-99.99,,2013-06-30 19:43:00,
2013-06-30 13:02:00,66.0,-99.9,29.83,South,178,8.0,11.0,-999,-99.99,,,-99.99,,2013-06-30 20:02:00,
2013-06-30 13:42:00,66.0,-99.9,29.83,South,178,7.0,11.0,-999,-99.99,,,-99.99,,2013-06-30 20:42:00,
2013-06-30 14:43:00,67.0,-99.9,29.82,South,170,6.0,9.0,-999,-99.99,,,-99.99,,2013-06-30 21:43:00,
2013-06-30 14:53:00,66.0,-99.9,29.82,South,185,8.0,14.0,-999,-99.99,,,-99.99,,2013-06-30 21:53:00,
2013-06-30 15:01:00,66.0,-99.9,29.81,South,180,9.0,13.0,-999,-99.99,,,-99.99,,2013-06-30 22:01:00,
2013-06-30 15:22:00,67.0,-99.9,29.81,South,182,6.0,11.0,-999,-99.99,,,-99.99,,2013-06-30 22:22:00,
2013-06-30 15:34:00,68.0,-99.9,29.81,SSE,165,3.0,10.0,-999,-99.99,,,-99.99,,2013-06-30 22:34:00,
2013-06-30 15:43:00,66.0,-99.9,29.81,South,188,8.0,13.0,-999,-99.99,,,-99.99,,2013-06-30 22:43:00,
2013-06-30 15:53:00,67.0,-99.9,29.81,South,179,9.0,12.0,-999,-99.99,,,-99.99,,2013-06-30 22:53:00,
2013-06-30 16:02:00,67.0,-99.9,29.81,South,183,5.0,10.0,-999,-99.99,,,-99.99,,2013-06-30 23:02:00,
2013-06-30 16:22:00,68.0,-99.9,29.80,South,177,6.0,7.0,-999,-99.99,,,-99.99,,2013-06-30 23:22:00,
2013-06-30 16:44:00,67.0,-99.9,29.79,South,185,10.0,15.0,-999,-99.99,,,-99.99,,2013-06-30 23:44:00,
2013-06-30 17:42:00,69.0,-99.9,29.78,South,174,7.0,10.0,-999,-99.99,,,-99.99,,2013-07-01 00:42:00,
2013-06-30 18:12:00,67.0,-99.9,29.78,South,187,9.0,13.0,-999,-99.99,,,-99.99,,2013-07-01 01:12:00,
2013-06-30 18:34:00,66.0,-99.9,29.78,South,187,10.0,14.0,-999,-99.99,,,-99.99,,2013-07-01 01:34:00,
2013-06-30 18:43:00,67.0,-99.9,29.78,SE,136,4.0,10.0,-999,-99.99,,,-99.99,,2013-07-01 01:43:00,
2013-06-30 18:52:00,67.0,-99.9,29.77,SSE,153,4.0,6.0,-999,-99.99,,,-99.99,,2013-07-01 01:52:00,
2013-06-30 19:02:00,67.0,-99.9,29.77,South,182,4.0,6.0,-999,-99.99,,,-99.99,,2013-07-01 02:02:00,
2013-06-30 19:12:00,67.0,-99.9,29.77,South,178,8.0,10.0,-999,-99.99,,,-99.99,,2013-07-01 02:12:00,
2013-06-30 19:22:00,66.0,-99.9,29.77,South,169,9.0,13.0,-999,-99.99,,,-99.99,,2013-07-01 02:22:00,
2013-06-30 19:33:00,67.0,-99.9,29.77,SSE,147,4.0,8.0,-999,-99.99,,,-99.99,,2013-07-01 02:33:00,
2013-06-30 19:44:00,65.0,-99.9,29.77,SSE,166,7.0,8.0,-999,-99.99,,,-99.99,,2013-07-01 02:44:00,
2013-06-30 19:54:00,66.0,-99.9,29.77,South,178,7.0,9.0,-999,-99.99,,,-99.99,,2013-07-01 02:54:00,
2013-06-30 20:01:00,64.0,-99.9,29.76,SSE,166,10.0,13.0,-999,-99.99,,,-99.99,,2013-07-01 03:01:00,
2013-06-30 20:12:00,64.0,-99.9,29.76,SSE,166,10.0,13.0,-999,-99.99,,,-99.99,,2013-07-01 03:12:00,
2013-06-30 20:23:00,64.0,-99.9,29.76,SSE,166,10.0,13.0,-999,-99.99,,,-99.99,,2013-07-01 03:23:00,
2013-06-30 20:33:00,64.0,-99.9,29.77,SSE,147,2.0,13.0,-999,-99.99,,,-99.99,,2013-07-01 03:33:00,
2013-06-30 20:43:00,63.0,-99.9,29.77,SE,146,6.0,10.0,-999,-99.99,,,-99.99,,2013-07-01 03:43:00,
2013-06-30 20:53:00,62.0,-99.9,29.77,SSE,154,8.0,13.0,-999,-99.99,,,-99.99,,2013-07-01 03:53:00,
2013-06-30 21:11:00,61.0,-99.9,29.77,SSE,157,10.0,16.0,-999,-99.99,,,-99.99,,2013-07-01 04:11:00,
2013-06-30 21:32:00,60.0,-99.9,29.77,SSE,161,12.0,17.0,-999,-99.99,,,-99.99,,2013-07-01 04:32:00,
2013-06-30 21:43:00,61.0,-99.9,29.78,SSE,164,12.0,17.0,-999,-99.99,,,-99.99,,2013-07-01 04:43:00,
2013-06-30 21:53:00,62.0,-99.9,29.78,South,171,7.0,12.0,-999,-99.99,,,-99.99,,2013-07-01 04:53:00,
2013-06-30 22:02:00,62.0,-99.9,29.79,South,176,9.0,13.0,-999,-99.99,,,-99.99,,2013-07-01 05:02:00,
2013-06-30 22:11:00,61.0,-99.9,29.79,SSE,163,12.0,14.0,-999,-99.99,,,-99.99,,2013-07-01 05:11:00,
2013-06-30 22:33:00,61.0,-99.9,29.80,South,175,7.0,14.0,-999,-99.99,,,-99.99,,2013-07-01 05:33:00,
2013-06-30 22:42:00,61.0,-99.9,29.80,SSW,196,6.0,11.0,-999,-99.99,,,-99.99,,2013-07-01 05:42:00,
2013-06-30 22:52:00,61.0,-99.9,29.80,South,181,8.0,12.0,-999,-99.99,,,-99.99,,2013-07-01 05:52:00,
2013-06-30 23:02:00,61.0,-99.9,29.80,South,187,7.0,11.0,-999,-99.99,,,-99.99,,2013-07-01 06:02:00,
2013-06-30 23:24:00,61.0,-99.9,29.81,South,183,8.0,11.0,-999,-99.99,,,-99.99,,2013-07-01 06:24:00,
2013-06-30 23:34:00,60.0,-99.9,29.81,South,174,11.0,14.0,-999,-99.99,,,-99.99,,2013-07-01 06:34:00,
2013-06-30 23:43:00,59.0,-99.9,29.80,South,169,12.0,16.0,-999,-99.99,,,-99.99,,2013-07-01 06:43:00,
2013-06-30 23:53:00,59.0,-99.9,29.80,South,170,12.0,14.0,-999,-99.99,,,-99.99,,2013-07-01 06:53:00,